Time,TemperatureF,DewpointF,PressureIn,WindDirection,WindDirectionDegrees,WindSpeedMPH,WindSpeedGustMPH,Humidity,HourlyPrecipIn,Conditions,Clouds,dailyrainin,SoftwareType,DateUTC
2013-12-16 00:03:00,6.7,1.6,30.06,East,96,3.0,5.0,79,0.00,,,0.00,Wunderground v.1.15,2013-12-16 06:03:00,
2013-12-16 00:08:00,6.7,1.6,30.06,East,84,3.0,5.0,79,0.00,,,0.00,Wunderground v.1.15,2013-12-16 06:08:00,
2013-12-16 00:14:00,6.7,1.6,30.06,East,80,0.0,3.0,79,0.00,,,0.00,Wunderground v.1.15,2013-12-16 06:14:00,
2013-12-16 00:19:00,6.9,1.8,30.06,East,80,0.0,3.0,79,0.00,,,0.00,Wunderground v.1.15,2013-12-16 06:19:00,
2013-12-16 00:25:00,6.9,1.8,30.06,ESE,114,0.0,4.0,79,0.00,,,0.00,Wunderground v.1.15,2013-12-16 06:25:00,
2013-12-16 00:30:00,6.9,1.8,30.06,ESE,121,3.0,3.0,79,0.00,,,0.00,Wunderground v.1.15,2013-12-16 06:30:00,
2013-12-16 00:36:00,6.9,2.0,30.06,SE,142,0.0,6.0,80,0.00,,,0.00,Wunderground v.1.15,2013-12-16 06:36:00,
2013-12-16 00:41:00,6.9,2.0,30.06,ESE,114,0.0,4.0,80,0.00,,,0.00,Wunderground v.1.15,2013-12-16 06:41:00,
2013-12-16 00:47:00,7.0,2.1,30.06,ESE,107,4.0,4.0,80,0.00,,,0.00,Wunderground v.1.15,2013-12-16 06:47:00,
2013-12-16 00:52:00,7.0,2.1,30.07,ESE,112,1.0,3.0,80,0.00,,,0.00,Wunderground v.1.15,2013-12-16 06:52:00,
2013-12-16 00:58:00,7.0,2.1,30.07,East,101,3.0,6.0,80,0.00,,,0.00,Wunderground v.1.15,2013-12-16 06:58:00,
2013-12-16 01:03:00,7.0,2.1,30.06,ESE,107,4.0,5.0,80,0.00,,,0.00,Wunderground v.1.15,2013-12-16 07:03:00,
2013-12-16 01:09:00,7.0,2.1,30.06,SE,125,1.0,5.0,80,0.00,,,0.00,Wunderground v.1.15,2013-12-16 07:09:00,
2013-12-16 01:14:00,7.0,2.1,30.06,ESE,119,0.0,2.0,80,0.00,,,0.00,Wunderground v.1.15,2013-12-16 07:14:00,
2013-12-16 01:19:00,7.2,2.3,30.04,ESE,121,0.0,4.0,80,0.00,,,0.00,Wunderground v.1.15,2013-12-16 07:19:00,
2013-12-16 01:25:00,7.2,2.3,30.04,East,88,0.0,5.0,80,0.00,,,0.00,Wunderground v.1.15,2013-12-16 07:25:00,
2013-12-16 01:30:00,7.2,2.3,30.04,SE,132,0.0,2.0,80,0.00,,,0.00,Wunderground v.1.15,2013-12-16 07:30:00,
2013-12-16 01:36:00,7.2,2.3,30.05,SE,143,0.0,2.0,80,0.00,,,0.00,Wunderground v.1.15,2013-12-16 07:36:00,
2013-12-16 01:41:00,7.4,2.5,30.05,ESE,117,3.0,3.0,80,0.00,,,0.00,Wunderground v.1.15,2013-12-16 07:41:00,
2013-12-16 01:47:00,7.4,2.5,30.05,ESE,111,0.0,3.0,80,0.00,,,0.00,Wunderground v.1.15,2013-12-16 07:47:00,
2013-12-16 01:52:00,7.6,2.7,30.06,SE,128,0.0,2.0,80,0.00,,,0.00,Wunderground v.1.15,2013-12-16 07:52:00,
2013-12-16 01:58:00,7.6,3.0,30.06,SSE,150,3.0,3.0,81,0.00,,,0.00,Wunderground v.1.15,2013-12-16 07:58:00,
2013-12-16 02:03:00,7.6,3.0,30.06,SSE,161,0.0,5.0,81,0.00,,,0.00,Wunderground v.1.15,2013-12-16 08:03:00,
2013-12-16 02:08:00,7.6,3.0,30.06,South,175,0.0,7.0,81,0.00,,,0.00,Wunderground v.1.15,2013-12-16 08:08:00,
2013-12-16 02:13:00,7.7,3.1,30.06,ESE,105,0.0,2.0,81,0.00,,,0.00,Wunderground v.1.15,2013-12-16 08:13:00,
2013-12-16 02:18:00,7.7,3.1,30.07,ESE,110,0.0,3.0,81,0.00,,,0.00,Wunderground v.1.15,2013-12-16 08:18:00,
2013-12-16 02:23:00,7.7,3.1,30.07,SE,146,1.0,5.0,81,0.00,,,0.00,Wunderground v.1.15,2013-12-16 08:23:00,
2013-12-16 02:28:00,7.9,3.3,30.07,ESE,121,0.0,5.0,81,0.00,,,0.00,Wunderground v.1.15,2013-12-16 08:28:00,
2013-12-16 02:33:00,7.9,3.3,30.07,ESE,121,0.0,4.0,81,0.00,,,0.00,Wunderground v.1.15,2013-12-16 08:33:00,
2013-12-16 02:38:00,7.9,3.3,30.07,ESE,121,0.0,5.0,81,0.00,,,0.00,Wunderground v.1.15,2013-12-16 08:38:00,
2013-12-16 02:43:00,8.1,3.5,30.07,SE,126,0.0,5.0,81,0.00,,,0.00,Wunderground v.1.15,2013-12-16 08:43:00,
2013-12-16 02:48:00,8.1,3.5,30.06,SE,132,3.0,5.0,81,0.00,,,0.00,Wunderground v.1.15,2013-12-16 08:48:00,
2013-12-16 02:53:00,8.1,3.5,30.06,SSE,157,0.0,5.0,81,0.00,,,0.00,Wunderground v.1.15,2013-12-16 08:53:00,
2013-12-16 02:58:00,8.1,3.5,30.06,ESE,109,1.0,5.0,81,0.00,,,0.00,Wunderground v.1.15,2013-12-16 08:58:00,
2013-12-16 03:03:00,8.1,3.7,30.06,ESE,114,0.0,3.0,82,0.00,,,0.00,Wunderground v.1.15,2013-12-16 09:03:00,
2013-12-16 03:09:00,8.1,3.7,30.06,ESE,123,0.0,5.0,82,0.00,,,0.00,Wunderground v.1.15,2013-12-16 09:09:00,
2013-12-16 03:14:00,8.3,3.9,30.06,ESE,123,0.0,3.0,82,0.00,,,0.00,Wunderground v.1.15,2013-12-16 09:14:00,
2013-12-16 03:19:00,8.3,3.9,30.06,ESE,123,3.0,4.0,82,0.00,,,0.00,Wunderground v.1.15,2013-12-16 09:19:00,
2013-12-16 03:24:00,8.3,3.9,30.06,South,169,2.0,5.0,82,0.00,,,0.00,Wunderground v.1.15,2013-12-16 09:24:00,
2013-12-16 03:29:00,8.4,4.0,30.06,SSE,160,0.0,6.0,82,0.00,,,0.00,Wunderground v.1.15,2013-12-16 09:29:00,
2013-12-16 03:34:00,8.4,4.0,30.05,SSE,161,1.0,3.0,82,0.00,,,0.00,Wunderground v.1.15,2013-12-16 09:34:00,
2013-12-16 03:39:00,8.4,4.0,30.05,SSE,162,0.0,5.0,82,0.00,,,0.00,Wunderground v.1.15,2013-12-16 09:39:00,
2013-12-16 03:44:00,8.4,4.0,30.05,South,175,5.0,5.0,82,0.00,,,0.00,Wunderground v.1.15,2013-12-16 09:44:00,
2013-12-16 03:49:00,8.4,4.0,30.06,SE,127,4.0,7.0,82,0.00,,,0.00,Wunderground v.1.15,2013-12-16 09:49:00,
2013-12-16 03:54:00,8.4,4.3,30.06,SSE,159,5.0,10.0,83,0.00,,,0.00,Wunderground v.1.15,2013-12-16 09:54:00,
2013-12-16 03:59:00,8.4,4.3,30.06,SSE,159,0.0,10.0,83,0.00,,,0.00,Wunderground v.1.15,2013-12-16 09:59:00,
2013-12-16 04:04:00,8.6,4.5,30.03,SSE,168,5.0,7.0,83,0.00,,,0.00,Wunderground v.1.15,2013-12-16 10:04:00,
2013-12-16 04:09:00,8.6,4.5,30.03,SSE,149,1.0,7.0,83,0.00,,,0.00,Wunderground v.1.15,2013-12-16 10:09:00,
2013-12-16 04:14:00,8.6,4.5,30.03,ESE,120,0.0,7.0,83,0.00,,,0.00,Wunderground v.1.15,2013-12-16 10:14:00,
2013-12-16 04:19:00,8.6,4.5,30.01,SE,142,1.0,10.0,83,0.00,,,0.00,Wunderground v.1.15,2013-12-16 10:19:00,
2013-12-16 04:24:00,8.6,4.5,30.01,SSE,148,1.0,7.0,83,0.00,,,0.00,Wunderground v.1.15,2013-12-16 10:24:00,
2013-12-16 04:29:00,8.6,4.5,30.01,SSE,156,0.0,10.0,83,0.00,,,0.00,Wunderground v.1.15,2013-12-16 10:29:00,
2013-12-16 04:34:00,8.8,4.7,30.01,South,191,4.0,10.0,83,0.00,,,0.00,Wunderground v.1.15,2013-12-16 10:34:00,
2013-12-16 04:39:00,8.8,4.7,30.01,South,173,3.0,10.0,83,0.00,,,0.00,Wunderground v.1.15,2013-12-16 10:39:00,
2013-12-16 04:44:00,8.8,4.7,30.01,SSE,165,5.0,11.0,83,0.00,,,0.00,Wunderground v.1.15,2013-12-16 10:44:00,
2013-12-16 04:49:00,9.0,4.9,30.01,South,188,4.0,12.0,83,0.00,,,0.00,Wunderground v.1.15,2013-12-16 10:49:00,
2013-12-16 04:54:00,9.0,4.9,30.01,South,171,3.0,10.0,83,0.00,,,0.00,Wunderground v.1.15,2013-12-16 10:54:00,
2013-12-16 04:59:00,9.0,4.9,30.01,South,169,5.0,11.0,83,0.00,,,0.00,Wunderground v.1.15,2013-12-16 10:59:00,
2013-12-16 05:04:00,9.2,5.1,30.01,South,186,3.0,8.0,83,0.00,,,0.00,Wunderground v.1.15,2013-12-16 11:04:00,
2013-12-16 05:09:00,9.2,5.1,30.01,SSE,148,7.0,10.0,83,0.00,,,0.00,Wunderground v.1.15,2013-12-16 11:09:00,
2013-12-16 05:14:00,9.2,5.1,30.01,South,180,5.0,11.0,83,0.00,,,0.00,Wunderground v.1.15,2013-12-16 11:14:00,
2013-12-16 05:19:00,9.2,5.1,29.99,South,176,4.0,11.0,83,0.00,,,0.00,Wunderground v.1.15,2013-12-16 11:19:00,
2013-12-16 05:24:00,9.2,4.8,29.99,South,184,7.0,13.0,82,0.00,,,0.00,Wunderground v.1.15,2013-12-16 11:24:00,
2013-12-16 05:29:00,9.2,4.8,29.99,South,177,9.0,13.0,82,0.00,,,0.00,Wunderground v.1.15,2013-12-16 11:29:00,
2013-12-16 05:34:00,9.3,4.9,29.99,South,172,6.0,9.0,82,0.00,,,0.00,Wunderground v.1.15,2013-12-16 11:34:00,
2013-12-16 05:39:00,9.3,4.9,29.99,South,170,7.0,11.0,82,0.00,,,0.00,Wunderground v.1.15,2013-12-16 11:39:00,
2013-12-16 05:44:00,9.3,5.2,29.99,South,183,5.0,9.0,83,0.00,,,0.00,Wunderground v.1.15,2013-12-16 11:44:00,
2013-12-16 05:49:00,9.3,5.2,29.99,South,174,0.0,9.0,83,0.00,,,0.00,Wunderground v.1.15,2013-12-16 11:49:00,
2013-12-16 05:54:00,9.5,5.4,29.99,South,186,2.0,10.0,83,0.00,,,0.00,Wunderground v.1.15,2013-12-16 11:54:00,
2013-12-16 05:59:00,9.5,5.4,29.99,South,176,5.0,10.0,83,0.00,,,0.00,Wunderground v.1.15,2013-12-16 11:59:00,
2013-12-16 06:04:00,9.7,5.6,29.99,SSE,165,4.0,7.0,83,0.00,,,0.00,Wunderground v.1.15,2013-12-16 12:04:00,
2013-12-16 06:09:00,9.7,5.6,29.99,South,177,0.0,10.0,83,0.00,,,0.00,Wunderground v.1.15,2013-12-16 12:09:00,
2013-12-16 06:14:00,9.9,5.8,29.99,SSE,153,4.0,6.0,83,0.00,,,0.00,Wunderground v.1.15,2013-12-16 12:14:00,
2013-12-16 06:19:00,9.9,5.8,29.99,South,187,6.0,9.0,83,0.00,,,0.00,Wunderground v.1.15,2013-12-16 12:19:00,
2013-12-16 06:24:00,9.9,5.8,29.99,South,189,3.0,11.0,83,0.00,,,0.00,Wunderground v.1.15,2013-12-16 12:24:00,
2013-12-16 06:29:00,9.9,5.8,29.99,South,188,2.0,11.0,83,0.00,,,0.00,Wunderground v.1.15,2013-12-16 12:29:00,
2013-12-16 06:34:00,10.0,5.9,29.99,South,182,1.0,8.0,83,0.00,,,0.00,Wunderground v.1.15,2013-12-16 12:34:00,
2013-12-16 06:40:00,10.0,5.9,29.99,South,173,1.0,3.0,83,0.00,,,0.00,Wunderground v.1.15,2013-12-16 12:40:00,
2013-12-16 06:45:00,10.0,5.9,29.99,South,173,6.0,11.0,83,0.00,,,0.00,Wunderground v.1.15,2013-12-16 12:45:00,
2013-12-16 06:50:00,10.0,5.9,29.99,South,179,2.0,4.0,83,0.00,,,0.00,Wunderground v.1.15,2013-12-16 12:50:00,
2013-12-16 06:55:00,9.9,5.8,29.99,South,180,4.0,6.0,83,0.00,,,0.00,Wunderground v.1.15,2013-12-16 12:55:00,
2013-12-16 07:00:00,9.7,5.6,29.99,SSW,201,5.0,5.0,83,0.00,,,0.00,Wunderground v.1.15,2013-12-16 13:00:00,
2013-12-16 07:05:00,9.5,5.4,29.99,South,182,6.0,7.0,83,0.00,,,0.00,Wunderground v.1.15,2013-12-16 13:05:00,
2013-12-16 07:10:00,9.3,5.2,29.99,South,182,5.0,5.0,83,0.00,,,0.00,Wunderground v.1.15,2013-12-16 13:10:00,
2013-12-16 07:15:00,9.3,5.2,29.99,South,180,10.0,12.0,83,0.00,,,0.00,Wunderground v.1.15,2013-12-16 13:15:00,
2013-12-16 07:20:00,9.2,5.1,29.98,South,188,4.0,6.0,83,0.00,,,0.00,Wunderground v.1.15,2013-12-16 13:20:00,
2013-12-16 07:25:00,9.2,5.1,29.98,South,176,7.0,11.0,83,0.00,,,0.00,Wunderground v.1.15,2013-12-16 13:25:00,
2013-12-16 07:30:00,9.0,4.9,29.98,South,190,5.0,10.0,83,0.00,,,0.00,Wunderground v.1.15,2013-12-16 13:30:00,
2013-12-16 07:35:00,9.0,4.9,29.98,South,182,3.0,10.0,83,0.00,,,0.00,Wunderground v.1.15,2013-12-16 13:35:00,
2013-12-16 07:40:00,9.0,5.1,29.98,South,178,12.0,12.0,84,0.00,,,0.00,Wunderground v.1.15,2013-12-16 13:40:00,
2013-12-16 07:45:00,8.8,5.0,29.98,South,180,5.0,13.0,84,0.00,,,0.00,Wunderground v.1.15,2013-12-16 13:45:00,
2013-12-16 07:50:00,8.8,5.0,29.97,South,183,13.0,13.0,84,0.00,,,0.00,Wunderground v.1.15,2013-12-16 13:50:00,
2013-12-16 07:55:00,8.8,5.0,29.97,South,171,9.0,14.0,84,0.00,,,0.00,Wunderground v.1.15,2013-12-16 13:55:00,
2013-12-16 08:00:00,9.0,5.1,29.97,SSW,192,5.0,8.0,84,0.00,,,0.00,Wunderground v.1.15,2013-12-16 14:00:00,
2013-12-16 08:05:00,9.2,5.3,29.96,South,182,6.0,12.0,84,0.00,,,0.00,Wunderground v.1.15,2013-12-16 14:05:00,
2013-12-16 08:10:00,9.3,5.4,29.96,SSW,194,5.0,11.0,84,0.00,,,0.00,Wunderground v.1.15,2013-12-16 14:10:00,
2013-12-16 08:15:00,9.3,5.4,29.96,South,184,11.0,16.0,84,0.00,,,0.00,Wunderground v.1.15,2013-12-16 14:15:00,
2013-12-16 08:20:00,9.3,5.4,29.97,South,189,6.0,10.0,84,0.00,,,0.00,Wunderground v.1.15,2013-12-16 14:20:00,
2013-12-16 08:25:00,9.2,5.1,29.97,South,182,5.0,11.0,83,0.00,,,0.00,Wunderground v.1.15,2013-12-16 14:25:00,
2013-12-16 08:30:00,9.2,5.1,29.97,South,178,5.0,10.0,83,0.00,,,0.00,Wunderground v.1.15,2013-12-16 14:30:00,
2013-12-16 08:35:00,9.2,5.1,29.97,South,182,9.0,13.0,83,0.00,,,0.00,Wunderground v.1.15,2013-12-16 14:35:00,
2013-12-16 08:40:00,9.5,5.4,29.97,SSW,192,5.0,7.0,83,0.00,,,0.00,Wunderground v.1.15,2013-12-16 14:40:00,
2013-12-16 08:45:00,9.9,5.8,29.97,South,184,2.0,12.0,83,0.00,,,0.00,Wunderground v.1.15,2013-12-16 14:45:00,
2013-12-16 08:50:00,9.7,5.6,29.98,South,180,11.0,12.0,83,0.00,,,0.00,Wunderground v.1.15,2013-12-16 14:50:00,
2013-12-16 08:55:00,9.7,5.6,29.98,South,178,7.0,14.0,83,0.00,,,0.00,Wunderground v.1.15,2013-12-16 14:55:00,
2013-12-16 09:00:00,9.7,5.6,29.98,South,171,7.0,10.0,83,0.00,,,0.00,Wunderground v.1.15,2013-12-16 15:00:00,
2013-12-16 09:05:00,9.7,5.6,29.97,South,190,5.0,12.0,83,0.00,,,0.00,Wunderground v.1.15,2013-12-16 15:05:00,
2013-12-16 09:10:00,9.9,5.8,29.97,South,178,7.0,10.0,83,0.00,,,0.00,Wunderground v.1.15,2013-12-16 15:10:00,
2013-12-16 09:15:00,9.9,5.8,29.97,South,182,7.0,14.0,83,0.00,,,0.00,Wunderground v.1.15,2013-12-16 15:15:00,
2013-12-16 09:20:00,10.0,5.9,29.97,South,190,2.0,7.0,83,0.00,,,0.00,Wunderground v.1.15,2013-12-16 15:20:00,
2013-12-16 09:26:00,10.2,6.1,29.97,South,176,5.0,11.0,83,0.00,,,0.00,Wunderground v.1.15,2013-12-16 15:26:00,
2013-12-16 09:31:00,10.2,5.8,29.97,South,182,7.0,8.0,82,0.00,,,0.00,Wunderground v.1.15,2013-12-16 15:31:00,
2013-12-16 09:36:00,10.0,5.6,29.98,South,174,4.0,13.0,82,0.00,,,0.00,Wunderground v.1.15,2013-12-16 15:36:00,
2013-12-16 09:41:00,10.4,6.0,29.98,South,190,3.0,10.0,82,0.00,,,0.00,Wunderground v.1.15,2013-12-16 15:41:00,
2013-12-16 09:46:00,10.7,6.3,29.98,South,175,1.0,11.0,82,0.00,,,0.00,Wunderground v.1.15,2013-12-16 15:46:00,
2013-12-16 09:51:00,10.9,6.2,29.98,South,179,3.0,8.0,81,0.00,,,0.00,Wunderground v.1.15,2013-12-16 15:51:00,
2013-12-16 09:56:00,10.9,6.2,29.98,SSW,194,0.0,9.0,81,0.00,,,0.00,Wunderground v.1.15,2013-12-16 15:56:00,
2013-12-16 10:01:00,10.9,6.2,29.98,South,182,3.0,9.0,81,0.00,,,0.00,Wunderground v.1.15,2013-12-16 16:01:00,
2013-12-16 10:06:00,11.1,6.4,29.99,SSE,157,6.0,9.0,81,0.00,,,0.00,Wunderground v.1.15,2013-12-16 16:06:00,
2013-12-16 10:11:00,11.4,6.7,29.99,SSE,166,6.0,8.0,81,0.00,,,0.00,Wunderground v.1.15,2013-12-16 16:11:00,
2013-12-16 10:16:00,11.9,7.2,29.99,South,182,5.0,9.0,81,0.00,,,0.00,Wunderground v.1.15,2013-12-16 16:16:00,
2013-12-16 10:21:00,12.1,7.4,29.97,South,190,2.0,10.0,81,0.00,,,0.00,Wunderground v.1.15,2013-12-16 16:21:00,
2013-12-16 10:26:00,12.8,8.1,29.97,South,174,3.0,10.0,81,0.00,,,0.00,Wunderground v.1.15,2013-12-16 16:26:00,
2013-12-16 10:31:00,13.5,8.8,29.97,South,171,5.0,6.0,81,0.00,,,0.00,Wunderground v.1.15,2013-12-16 16:31:00,
2013-12-16 10:36:00,13.6,8.6,29.98,South,188,3.0,11.0,80,0.00,,,0.00,Wunderground v.1.15,2013-12-16 16:36:00,
2013-12-16 10:41:00,14.1,9.1,29.98,South,189,0.0,3.0,80,0.00,,,0.00,Wunderground v.1.15,2013-12-16 16:41:00,
2013-12-16 10:46:00,14.3,9.0,29.98,SSW,206,1.0,7.0,79,0.00,,,0.00,Wunderground v.1.15,2013-12-16 16:46:00,
2013-12-16 10:51:00,14.1,8.5,29.99,South,191,5.0,6.0,78,0.00,,,0.00,Wunderground v.1.15,2013-12-16 16:51:00,
2013-12-16 10:56:00,14.3,8.7,29.99,SSW,201,3.0,6.0,78,0.00,,,0.00,Wunderground v.1.15,2013-12-16 16:56:00,
2013-12-16 11:01:00,14.3,8.7,29.99,WSW,246,1.0,3.0,78,0.00,,,0.00,Wunderground v.1.15,2013-12-16 17:01:00,
2013-12-16 11:06:00,14.3,8.7,29.98,SW,224,2.0,9.0,78,0.00,,,0.00,Wunderground v.1.15,2013-12-16 17:06:00,
2013-12-16 11:11:00,14.6,9.0,29.98,SW,227,0.0,4.0,78,0.00,,,0.00,Wunderground v.1.15,2013-12-16 17:11:00,
2013-12-16 11:16:00,14.8,8.9,29.98,WSW,246,2.0,11.0,77,0.00,,,0.00,Wunderground v.1.15,2013-12-16 17:16:00,
2013-12-16 11:22:00,14.6,9.0,29.98,SW,225,3.0,5.0,78,0.00,,,0.00,Wunderground v.1.15,2013-12-16 17:22:00,
2013-12-16 11:27:00,14.8,8.9,29.98,SSW,211,4.0,10.0,77,0.00,,,0.00,Wunderground v.1.15,2013-12-16 17:27:00,
2013-12-16 11:32:00,14.4,8.5,29.98,West,265,8.0,8.0,77,0.00,,,0.00,Wunderground v.1.15,2013-12-16 17:32:00,
2013-12-16 11:37:00,14.0,8.1,29.99,WSW,238,3.0,9.0,77,0.00,,,0.00,Wunderground v.1.15,2013-12-16 17:37:00,
2013-12-16 11:42:00,14.1,8.5,29.99,WSW,242,5.0,6.0,78,0.00,,,0.00,Wunderground v.1.15,2013-12-16 17:42:00,
2013-12-16 11:47:00,14.6,9.0,29.99,WSW,258,5.0,10.0,78,0.00,,,0.00,Wunderground v.1.15,2013-12-16 17:47:00,
2013-12-16 11:52:00,14.9,9.3,29.98,WNW,294,11.0,11.0,78,0.00,,,0.00,Wunderground v.1.15,2013-12-16 17:52:00,
2013-12-16 11:57:00,15.2,9.6,29.98,West,275,6.0,13.0,78,0.00,,,0.00,Wunderground v.1.15,2013-12-16 17:57:00,
2013-12-16 12:02:00,15.6,10.0,29.98,West,281,2.0,12.0,78,0.00,,,0.00,Wunderground v.1.15,2013-12-16 18:02:00,
2013-12-16 12:07:00,15.7,10.1,29.99,West,262,8.0,14.0,78,0.00,,,0.00,Wunderground v.1.15,2013-12-16 18:07:00,
2013-12-16 12:12:00,15.7,10.1,29.99,WNW,303,6.0,11.0,78,0.00,,,0.00,Wunderground v.1.15,2013-12-16 18:12:00,
2013-12-16 12:17:00,15.9,10.5,29.99,West,273,10.0,11.0,79,0.00,,,0.00,Wunderground v.1.15,2013-12-16 18:17:00,
2013-12-16 12:22:00,16.1,10.7,29.98,West,278,7.0,12.0,79,0.00,,,0.00,Wunderground v.1.15,2013-12-16 18:22:00,
2013-12-16 12:27:00,16.4,11.0,29.98,NW,319,10.0,13.0,79,0.00,,,0.00,Wunderground v.1.15,2013-12-16 18:27:00,
2013-12-16 12:32:00,16.5,11.1,29.98,WNW,288,4.0,14.0,79,0.00,,,0.00,Wunderground v.1.15,2013-12-16 18:32:00,
2013-12-16 12:37:00,16.7,11.6,29.97,NW,313,3.0,14.0,80,0.00,,,0.00,Wunderground v.1.15,2013-12-16 18:37:00,
2013-12-16 12:42:00,16.9,11.8,29.97,WNW,286,11.0,14.0,80,0.00,,,0.00,Wunderground v.1.15,2013-12-16 18:42:00,
2013-12-16 12:47:00,17.0,12.2,29.97,NW,307,10.0,14.0,81,0.00,,,0.00,Wunderground v.1.15,2013-12-16 18:47:00,
2013-12-16 12:52:00,17.0,12.2,29.98,NW,311,7.0,16.0,81,0.00,,,0.00,Wunderground v.1.15,2013-12-16 18:52:00,
2013-12-16 12:57:00,17.2,12.6,29.98,NW,305,7.0,16.0,82,0.00,,,0.00,Wunderground v.1.15,2013-12-16 18:57:00,
2013-12-16 13:02:00,17.3,12.7,29.98,NNW,336,12.0,12.0,82,0.00,,,0.00,Wunderground v.1.15,2013-12-16 19:02:00,
2013-12-16 13:08:00,17.3,13.0,29.99,NNW,334,9.0,18.0,83,0.00,,,0.00,Wunderground v.1.15,2013-12-16 19:08:00,
2013-12-16 13:13:00,17.5,13.5,29.99,NW,319,11.0,13.0,84,0.00,,,0.00,Wunderground v.1.15,2013-12-16 19:13:00,
2013-12-16 13:18:00,17.5,13.8,29.98,NNW,327,11.0,14.0,85,0.00,,,0.00,Wunderground v.1.15,2013-12-16 19:18:00,
2013-12-16 13:23:00,17.7,14.0,29.98,NW,306,11.0,14.0,85,0.00,,,0.00,Wunderground v.1.15,2013-12-16 19:23:00,
2013-12-16 13:28:00,17.7,14.0,29.98,NNW,346,12.0,15.0,85,0.00,,,0.00,Wunderground v.1.15,2013-12-16 19:28:00,
2013-12-16 13:33:00,17.7,14.0,29.99,NW,323,7.0,13.0,85,0.00,,,0.00,Wunderground v.1.15,2013-12-16 19:33:00,
2013-12-16 13:38:00,17.7,14.0,29.99,NNW,331,6.0,13.0,85,0.00,,,0.00,Wunderground v.1.15,2013-12-16 19:38:00,
2013-12-16 13:43:00,17.8,14.1,29.99,NNW,341,9.0,12.0,85,0.00,,,0.00,Wunderground v.1.15,2013-12-16 19:43:00,
2013-12-16 13:48:00,18.0,14.5,29.99,NW,314,5.0,12.0,86,0.00,,,0.00,Wunderground v.1.15,2013-12-16 19:48:00,
2013-12-16 13:53:00,18.1,14.4,29.99,NNW,331,6.0,13.0,85,0.00,,,0.00,Wunderground v.1.15,2013-12-16 19:53:00,
2013-12-16 13:58:00,18.4,14.6,29.99,NW,321,13.0,13.0,85,0.00,,,0.00,Wunderground v.1.15,2013-12-16 19:58:00,
2013-12-16 14:03:00,18.4,14.4,29.99,NW,312,5.0,13.0,84,0.00,,,0.00,Wunderground v.1.15,2013-12-16 20:03:00,
2013-12-16 14:08:00,18.8,14.8,29.99,NNW,333,5.0,13.0,84,0.00,,,0.00,Wunderground v.1.15,2013-12-16 20:08:00,
2013-12-16 14:13:00,19.2,15.2,29.99,NW,320,6.0,9.0,84,0.00,,,0.00,Wunderground v.1.15,2013-12-16 20:13:00,
2013-12-16 14:18:00,19.9,16.1,30.00,NW,325,9.0,10.0,85,0.00,,,0.00,Wunderground v.1.15,2013-12-16 20:18:00,
2013-12-16 14:23:00,20.3,16.5,30.00,NNW,331,10.0,12.0,85,0.00,,,0.00,Wunderground v.1.15,2013-12-16 20:23:00,
2013-12-16 14:28:00,20.5,16.7,30.00,NW,316,4.0,16.0,85,0.00,,,0.00,Wunderground v.1.15,2013-12-16 20:28:00,
2013-12-16 14:33:00,21.0,17.2,30.01,NNW,327,16.0,16.0,85,0.00,,,0.00,Wunderground v.1.15,2013-12-16 20:33:00,
2013-12-16 14:38:00,21.3,17.5,30.01,WNW,287,8.0,16.0,85,0.00,,,0.00,Wunderground v.1.15,2013-12-16 20:38:00,
2013-12-16 14:43:00,21.4,17.6,30.01,WNW,292,0.0,13.0,85,0.00,,,0.00,Wunderground v.1.15,2013-12-16 20:43:00,
2013-12-16 14:48:00,21.6,17.2,30.01,WNW,299,7.0,13.0,83,0.00,,,0.00,Wunderground v.1.15,2013-12-16 20:48:00,
2013-12-16 14:53:00,21.6,17.0,30.01,WNW,296,7.0,7.0,82,0.00,,,0.00,Wunderground v.1.15,2013-12-16 20:53:00,
2013-12-16 14:58:00,21.6,16.7,30.01,WNW,285,5.0,10.0,81,0.00,,,0.00,Wunderground v.1.15,2013-12-16 20:58:00,
2013-12-16 15:03:00,21.6,16.4,30.02,WNW,294,5.0,10.0,80,0.00,,,0.00,Wunderground v.1.15,2013-12-16 21:03:00,
2013-12-16 15:08:00,21.6,16.4,30.02,West,268,3.0,10.0,80,0.00,,,0.00,Wunderground v.1.15,2013-12-16 21:08:00,
2013-12-16 15:13:00,21.6,16.1,30.02,WSW,256,1.0,9.0,79,0.00,,,0.00,Wunderground v.1.15,2013-12-16 21:13:00,
2013-12-16 15:18:00,21.6,16.1,30.01,West,265,0.0,9.0,79,0.00,,,0.00,Wunderground v.1.15,2013-12-16 21:18:00,
2013-12-16 15:23:00,21.8,16.3,30.01,West,262,0.0,6.0,79,0.00,,,0.00,Wunderground v.1.15,2013-12-16 21:23:00,
2013-12-16 15:28:00,22.1,16.3,30.01,West,262,0.0,6.0,78,0.00,,,0.00,Wunderground v.1.15,2013-12-16 21:28:00,
2013-12-16 15:33:00,22.2,16.1,30.01,West,261,1.0,4.0,77,0.00,,,0.00,Wunderground v.1.15,2013-12-16 21:33:00,
2013-12-16 15:38:00,22.5,16.4,30.01,West,259,0.0,4.0,77,0.00,,,0.00,Wunderground v.1.15,2013-12-16 21:38:00,
2013-12-16 15:43:00,22.7,16.6,30.01,West,259,0.0,4.0,77,0.00,,,0.00,Wunderground v.1.15,2013-12-16 21:43:00,
2013-12-16 15:48:00,22.9,16.8,30.01,West,259,1.0,4.0,77,0.00,,,0.00,Wunderground v.1.15,2013-12-16 21:48:00,
2013-12-16 15:53:00,22.9,16.8,30.01,WSW,258,3.0,7.0,77,0.00,,,0.00,Wunderground v.1.15,2013-12-16 21:53:00,
2013-12-16 15:59:00,23.2,17.4,30.01,West,268,4.0,7.0,78,0.00,,,0.00,Wunderground v.1.15,2013-12-16 21:59:00,
2013-12-16 16:03:00,23.5,17.6,30.02,WSW,242,4.0,7.0,78,0.00,,,0.00,Wunderground v.1.15,2013-12-16 22:03:00,
2013-12-16 16:08:00,23.5,17.3,30.02,SSW,198,2.0,7.0,77,0.00,,,0.00,Wunderground v.1.15,2013-12-16 22:08:00,
2013-12-16 16:13:00,23.2,17.4,30.02,WSW,252,2.0,5.0,78,0.00,,,0.00,Wunderground v.1.15,2013-12-16 22:13:00,
2013-12-16 16:19:00,22.9,17.1,30.04,West,259,4.0,5.0,78,0.00,,,0.00,Wunderground v.1.15,2013-12-16 22:19:00,
2013-12-16 16:24:00,22.7,16.9,30.04,West,263,0.0,7.0,78,0.00,,,0.00,Wunderground v.1.15,2013-12-16 22:24:00,
2013-12-16 16:29:00,22.7,16.9,30.04,WNW,291,5.0,9.0,78,0.00,,,0.00,Wunderground v.1.15,2013-12-16 22:29:00,
2013-12-16 16:34:00,22.7,16.9,30.03,NW,321,2.0,7.0,78,0.00,,,0.00,Wunderground v.1.15,2013-12-16 22:34:00,
2013-12-16 16:39:00,22.5,16.7,30.03,WNW,284,6.0,10.0,78,0.00,,,0.00,Wunderground v.1.15,2013-12-16 22:39:00,
2013-12-16 16:44:00,22.4,16.6,30.03,NW,308,4.0,6.0,78,0.00,,,0.00,Wunderground v.1.15,2013-12-16 22:44:00,
2013-12-16 16:49:00,22.1,16.3,30.04,WNW,289,3.0,8.0,78,0.00,,,0.00,Wunderground v.1.15,2013-12-16 22:49:00,
2013-12-16 16:54:00,21.6,16.1,30.04,WNW,290,2.0,6.0,79,0.00,,,0.00,Wunderground v.1.15,2013-12-16 22:54:00,
2013-12-16 16:59:00,21.3,15.8,30.04,West,261,3.0,6.0,79,0.00,,,0.00,Wunderground v.1.15,2013-12-16 22:59:00,
2013-12-16 17:04:00,21.0,15.8,30.04,West,261,1.0,6.0,80,0.00,,,0.00,Wunderground v.1.15,2013-12-16 23:04:00,
2013-12-16 17:09:00,20.8,15.6,30.04,West,272,2.0,6.0,80,0.00,,,0.00,Wunderground v.1.15,2013-12-16 23:09:00,
2013-12-16 17:14:00,20.5,15.3,30.04,West,266,3.0,6.0,80,0.00,,,0.00,Wunderground v.1.15,2013-12-16 23:14:00,
2013-12-16 17:19:00,20.2,15.0,30.05,West,261,0.0,6.0,80,0.00,,,0.00,Wunderground v.1.15,2013-12-16 23:19:00,
2013-12-16 17:24:00,19.5,14.3,30.05,West,261,0.0,2.0,80,0.00,,,0.00,Wunderground v.1.15,2013-12-16 23:24:00,
2013-12-16 17:29:00,18.9,13.7,30.05,WSW,255,0.0,2.0,80,0.00,,,0.00,Wunderground v.1.15,2013-12-16 23:29:00,
2013-12-16 17:34:00,18.4,13.5,30.05,WSW,255,0.0,1.0,81,0.00,,,0.00,Wunderground v.1.15,2013-12-16 23:34:00,
2013-12-16 17:39:00,18.1,13.5,30.05,WSW,256,3.0,4.0,82,0.00,,,0.00,Wunderground v.1.15,2013-12-16 23:39:00,
2013-12-16 17:44:00,18.3,13.7,30.05,WSW,256,0.0,3.0,82,0.00,,,0.00,Wunderground v.1.15,2013-12-16 23:44:00,
2013-12-16 17:50:00,18.1,13.8,30.06,WSW,256,0.0,1.0,83,0.00,,,0.00,Wunderground v.1.15,2013-12-16 23:50:00,
2013-12-16 17:55:00,18.1,13.8,30.06,WSW,256,0.0,3.0,83,0.00,,,0.00,Wunderground v.1.15,2013-12-16 23:55:00,
2013-12-16 18:00:00,18.1,13.8,30.06,WSW,257,2.0,2.0,83,0.00,,,0.00,Wunderground v.1.15,2013-12-17 00:00:00,
2013-12-16 18:05:00,18.0,13.7,30.06,WSW,257,0.0,2.0,83,0.00,,,0.00,Wunderground v.1.15,2013-12-17 00:05:00,
2013-12-16 18:10:00,17.8,13.5,30.06,WSW,257,0.0,0.0,83,0.00,,,0.00,Wunderground v.1.15,2013-12-17 00:10:00,
2013-12-16 18:15:00,17.3,13.0,30.06,WSW,257,0.0,1.0,83,0.00,,,0.00,Wunderground v.1.15,2013-12-17 00:15:00,
2013-12-16 18:20:00,17.2,13.2,30.06,WSW,255,0.0,1.0,84,0.00,,,0.00,Wunderground v.1.15,2013-12-17 00:20:00,
2013-12-16 18:25:00,17.2,13.2,30.06,WSW,255,0.0,1.0,84,0.00,,,0.00,Wunderground v.1.15,2013-12-17 00:25:00,
2013-12-16 18:30:00,17.2,13.2,30.06,WSW,255,0.0,0.0,84,0.00,,,0.00,Wunderground v.1.15,2013-12-17 00:30:00,
2013-12-16 18:35:00,17.3,13.6,30.06,WSW,255,0.0,3.0,85,0.00,,,0.00,Wunderground v.1.15,2013-12-17 00:35:00,
2013-12-16 18:40:00,17.7,14.0,30.06,West,261,3.0,3.0,85,0.00,,,0.00,Wunderground v.1.15,2013-12-17 00:40:00,
2013-12-16 18:45:00,18.1,14.4,30.06,West,269,5.0,6.0,85,0.00,,,0.00,Wunderground v.1.15,2013-12-17 00:45:00,
2013-12-16 18:50:00,18.6,15.1,30.06,West,261,1.0,4.0,86,0.00,,,0.00,Wunderground v.1.15,2013-12-17 00:50:00,
2013-12-16 18:55:00,19.1,15.6,30.06,West,264,4.0,9.0,86,0.00,,,0.00,Wunderground v.1.15,2013-12-17 00:55:00,
2013-12-16 19:00:00,19.4,15.9,30.06,WSW,257,2.0,3.0,86,0.00,,,0.00,Wunderground v.1.15,2013-12-17 01:00:00,
2013-12-16 19:05:00,19.7,16.2,30.06,WSW,254,1.0,4.0,86,0.00,,,0.00,Wunderground v.1.15,2013-12-17 01:05:00,
2013-12-16 19:10:00,19.9,16.1,30.06,WSW,254,0.0,1.0,85,0.00,,,0.00,Wunderground v.1.15,2013-12-17 01:10:00,
2013-12-16 19:15:00,19.9,16.1,30.06,WSW,253,0.0,1.0,85,0.00,,,0.00,Wunderground v.1.15,2013-12-17 01:15:00,
2013-12-16 19:20:00,20.2,16.7,30.06,WSW,253,0.0,0.0,86,0.00,,,0.00,Wunderground v.1.15,2013-12-17 01:20:00,
2013-12-16 19:25:00,20.5,17.0,30.06,WSW,253,0.0,0.0,86,0.00,,,0.00,Wunderground v.1.15,2013-12-17 01:25:00,
2013-12-16 19:30:00,21.0,17.7,30.06,WSW,253,0.0,0.0,87,0.00,,,0.00,Wunderground v.1.15,2013-12-17 01:30:00,
2013-12-16 19:35:00,21.3,18.0,30.06,WSW,253,2.0,2.0,87,0.00,,,0.00,Wunderground v.1.15,2013-12-17 01:35:00,
2013-12-16 19:40:00,21.6,18.3,30.06,SSW,197,1.0,1.0,87,0.00,,,0.00,Wunderground v.1.15,2013-12-17 01:40:00,
2013-12-16 19:45:00,21.8,18.3,30.06,SSW,197,0.0,2.0,86,0.00,,,0.00,Wunderground v.1.15,2013-12-17 01:45:00,
2013-12-16 19:50:00,21.8,18.3,30.05,SSW,197,0.0,0.0,86,0.00,,,0.00,Wunderground v.1.15,2013-12-17 01:50:00,
2013-12-16 19:55:00,21.9,18.4,30.05,SSW,212,0.0,5.0,86,0.00,,,0.00,Wunderground v.1.15,2013-12-17 01:55:00,
2013-12-16 20:00:00,22.2,18.7,30.05,SSW,211,0.0,2.0,86,0.00,,,0.00,Wunderground v.1.15,2013-12-17 02:00:00,
2013-12-16 20:05:00,22.5,18.9,30.06,SSW,212,1.0,4.0,86,0.00,,,0.00,Wunderground v.1.15,2013-12-17 02:05:00,
2013-12-16 20:10:00,22.7,19.1,30.06,SSW,211,0.0,1.0,86,0.00,,,0.00,Wunderground v.1.15,2013-12-17 02:10:00,
2013-12-16 20:15:00,22.9,19.3,30.06,SW,234,1.0,3.0,86,0.00,,,0.00,Wunderground v.1.15,2013-12-17 02:15:00,
2013-12-16 20:20:00,23.0,19.4,30.06,WSW,253,0.0,2.0,86,0.00,,,0.00,Wunderground v.1.15,2013-12-17 02:20:00,
2013-12-16 20:26:00,23.2,19.6,30.06,WSW,253,0.0,3.0,86,0.00,,,0.00,Wunderground v.1.15,2013-12-17 02:26:00,
2013-12-16 20:31:00,23.5,19.9,30.06,West,266,2.0,2.0,86,0.00,,,0.00,Wunderground v.1.15,2013-12-17 02:31:00,
2013-12-16 20:36:00,23.6,20.0,30.05,WSW,257,0.0,3.0,86,0.00,,,0.00,Wunderground v.1.15,2013-12-17 02:36:00,
2013-12-16 20:41:00,23.8,20.2,30.05,WSW,253,0.0,1.0,86,0.00,,,0.00,Wunderground v.1.15,2013-12-17 02:41:00,
2013-12-16 20:46:00,24.1,20.5,30.05,WSW,256,2.0,7.0,86,0.00,,,0.00,Wunderground v.1.15,2013-12-17 02:46:00,
2013-12-16 20:51:00,24.4,20.8,30.05,WSW,256,2.0,7.0,86,0.00,,,0.00,Wunderground v.1.15,2013-12-17 02:51:00,
2013-12-16 20:56:00,24.7,21.1,30.05,West,266,4.0,10.0,86,0.00,,,0.00,Wunderground v.1.15,2013-12-17 02:56:00,
2013-12-16 21:01:00,25.0,21.1,30.05,SW,234,4.0,6.0,85,0.00,,,0.00,Wunderground v.1.15,2013-12-17 03:01:00,
2013-12-16 21:06:00,25.3,21.4,30.05,West,268,2.0,10.0,85,0.00,,,0.00,Wunderground v.1.15,2013-12-17 03:06:00,
2013-12-16 21:11:00,25.4,21.5,30.05,SW,225,5.0,9.0,85,0.00,,,0.00,Wunderground v.1.15,2013-12-17 03:11:00,
2013-12-16 21:16:00,25.6,21.7,30.05,West,263,5.0,11.0,85,0.00,,,0.00,Wunderground v.1.15,2013-12-17 03:16:00,
2013-12-16 21:21:00,25.7,21.8,30.05,WSW,250,4.0,9.0,85,0.00,,,0.00,Wunderground v.1.15,2013-12-17 03:21:00,
2013-12-16 21:26:00,26.0,21.8,30.05,WSW,257,6.0,14.0,84,0.00,,,0.00,Wunderground v.1.15,2013-12-17 03:26:00,
2013-12-16 21:31:00,26.0,21.8,30.05,West,264,7.0,8.0,84,0.00,,,0.00,Wunderground v.1.15,2013-12-17 03:31:00,
2013-12-16 21:36:00,26.0,21.8,30.04,West,260,4.0,10.0,84,0.00,,,0.00,Wunderground v.1.15,2013-12-17 03:36:00,
2013-12-16 21:41:00,26.0,21.8,30.04,West,266,6.0,11.0,84,0.00,,,0.00,Wunderground v.1.15,2013-12-17 03:41:00,
2013-12-16 21:46:00,25.8,21.6,30.04,West,268,5.0,11.0,84,0.00,,,0.00,Wunderground v.1.15,2013-12-17 03:46:00,
2013-12-16 21:51:00,25.7,21.5,30.05,West,266,7.0,12.0,84,0.00,,,0.00,Wunderground v.1.15,2013-12-17 03:51:00,
2013-12-16 21:56:00,25.7,21.5,30.05,West,261,12.0,13.0,84,0.00,,,0.00,Wunderground v.1.15,2013-12-17 03:56:00,
2013-12-16 22:01:00,25.8,21.6,30.05,West,264,6.0,10.0,84,0.00,,,0.00,Wunderground v.1.15,2013-12-17 04:01:00,
2013-12-16 22:06:00,26.0,21.8,30.05,WSW,257,5.0,13.0,84,0.00,,,0.00,Wunderground v.1.15,2013-12-17 04:06:00,
2013-12-16 22:11:00,26.1,21.9,30.05,West,269,6.0,11.0,84,0.00,,,0.00,Wunderground v.1.15,2013-12-17 04:11:00,
2013-12-16 22:16:00,26.3,22.1,30.05,West,265,7.0,15.0,84,0.00,,,0.00,Wunderground v.1.15,2013-12-17 04:16:00,
2013-12-16 22:21:00,26.6,22.4,30.04,WSW,255,4.0,13.0,84,0.00,,,0.00,Wunderground v.1.15,2013-12-17 04:21:00,
2013-12-16 22:26:00,26.9,22.7,30.04,West,275,7.0,14.0,84,0.00,,,0.00,Wunderground v.1.15,2013-12-17 04:26:00,
2013-12-16 22:31:00,27.2,22.7,30.04,West,259,7.0,13.0,83,0.00,,,0.00,Wunderground v.1.15,2013-12-17 04:31:00,
2013-12-16 22:36:00,27.2,22.7,30.04,WSW,250,6.0,15.0,83,0.00,,,0.00,Wunderground v.1.15,2013-12-17 04:36:00,
2013-12-16 22:41:00,27.0,22.5,30.04,WSW,246,5.0,11.0,83,0.00,,,0.00,Wunderground v.1.15,2013-12-17 04:41:00,
2013-12-16 22:46:00,27.0,22.5,30.04,West,268,6.0,14.0,83,0.00,,,0.00,Wunderground v.1.15,2013-12-17 04:46:00,
2013-12-16 22:51:00,27.2,22.7,30.04,WNW,282,11.0,14.0,83,0.00,,,0.00,Wunderground v.1.15,2013-12-17 04:51:00,
2013-12-16 22:56:00,27.3,22.8,30.04,West,279,8.0,14.0,83,0.00,,,0.00,Wunderground v.1.15,2013-12-17 04:56:00,
2013-12-16 23:01:00,27.6,23.1,30.04,West,263,10.0,12.0,83,0.00,,,0.00,Wunderground v.1.15,2013-12-17 05:01:00,
2013-12-16 23:02:00,27.6,23.1,30.04,West,280,6.0,14.0,83,0.00,,,0.00,Wunderground v.1.15,2013-12-17 05:02:00,
2013-12-16 23:03:00,27.8,23.3,30.03,West,265,7.0,14.0,83,0.00,,,0.00,Wunderground v.1.15,2013-12-17 05:03:00,
2013-12-16 23:08:00,27.9,23.1,30.03,West,270,2.0,14.0,82,0.00,,,0.00,Wunderground v.1.15,2013-12-17 05:08:00,
2013-12-16 23:13:00,28.1,23.3,30.03,West,269,6.0,13.0,82,0.00,,,0.00,Wunderground v.1.15,2013-12-17 05:13:00,
2013-12-16 23:18:00,28.1,23.3,30.03,West,278,5.0,13.0,82,0.00,,,0.00,Wunderground v.1.15,2013-12-17 05:18:00,
2013-12-16 23:23:00,28.2,23.1,30.03,West,272,7.0,10.0,81,0.00,,,0.00,Wunderground v.1.15,2013-12-17 05:23:00,
2013-12-16 23:28:00,28.4,23.3,30.03,West,262,5.0,13.0,81,0.00,,,0.00,Wunderground v.1.15,2013-12-17 05:28:00,
2013-12-16 23:33:00,28.4,23.0,30.02,West,272,7.0,10.0,80,0.00,,,0.00,Wunderground v.1.15,2013-12-17 05:33:00,
2013-12-16 23:38:00,28.2,22.8,30.02,WSW,256,8.0,10.0,80,0.00,,,0.00,Wunderground v.1.15,2013-12-17 05:38:00,
2013-12-16 23:43:00,28.2,22.8,30.02,West,265,3.0,10.0,80,0.00,,,0.00,Wunderground v.1.15,2013-12-17 05:43:00,
2013-12-16 23:48:00,28.1,22.7,30.01,West,269,5.0,10.0,80,0.00,,,0.00,Wunderground v.1.15,2013-12-17 05:48:00,
2013-12-16 23:54:00,27.9,22.5,30.01,West,259,3.0,6.0,80,0.00,,,0.00,Wunderground v.1.15,2013-12-17 05:54:00,
2013-12-16 23:59:00,27.6,22.2,30.01,West,261,1.0,6.0,80,0.00,,,0.00,Wunderground v.1.15,2013-12-17 05:59:00,